Volver al catálogo

STARLINK-4772

ActivoComunicacionesVLEO
NORAD 53932·PAYLOAD·🇺🇸 United States

Lanzado Sep 24, 2022 desde Cape Canaveral Space Force Station

Loading…

Próximos Pases (próximas 24 horas)

TLE

ActualizadoSource: CelesTrak SupGP

Época: Sep 15, 2026, 01:27 UTC

1 53932C 22119AY  26258.06090278 -.00013748  00000+0 -86227-3 0  2582
2 53932  53.1587 168.4605 0001689  86.2316 238.2194 15.08837154    15

Sigue STARLINK-4772 en tiempo real con AllMySat

Download on the App Store